RPA4168 KIND-KBHM

Flight info

Callsign RPA4168
Flight time 1h 6m
Altitude 32000
Route DAWNN1 MYS
Aircraft E75L/M-SDE3GILORVW/S

Departure

Time 2026-05-06 22:28
Airport Indianapolis International Airport (KIND)

Arrival

Time 2026-05-06 23:34
Airport Birmingham-Shuttlesworth International Airport (KBHM)
Time Latitude Longitude Altitude Speed Heading
2026-05-06 22:10 39.71847 -86.29591 784 ft 0 kts 243°
2026-05-06 22:21 39.71854 -86.29574 784 ft 4 kts 243°
2026-05-06 22:22 39.71866 -86.29543 784 ft 4 kts 243°
2026-05-06 22:22 39.71879 -86.29511 785 ft 3 kts 243°
2026-05-06 22:22 39.71887 -86.29486 785 ft 4 kts 261°
2026-05-06 22:22 39.71882 -86.29453 785 ft 4 kts 303°
2026-05-06 22:23 39.71878 -86.29446 785 ft 0 kts 307°
2026-05-06 22:24 39.71878 -86.29447 785 ft 1 kts 307°
2026-05-06 22:24 39.71887 -86.29462 785 ft 5 kts 307°
2026-05-06 22:24 39.71933 -86.29538 784 ft 16 kts 309°
2026-05-06 22:25 39.72003 -86.29649 784 ft 14 kts 309°
2026-05-06 22:25 39.72083 -86.29659 783 ft 14 kts 32°
2026-05-06 22:25 39.72174 -86.29607 780 ft 16 kts 338°
2026-05-06 22:25 39.72263 -86.29690 777 ft 11 kts 358°
2026-05-06 22:26 39.72337 -86.29616 776 ft 19 kts 44°
2026-05-06 22:26 39.72445 -86.29481 775 ft 23 kts 44°
2026-05-06 22:26 39.72563 -86.29333 777 ft 23 kts 43°
2026-05-06 22:26 39.72676 -86.29194 778 ft 19 kts 32°
2026-05-06 22:27 39.72779 -86.29251 778 ft 17 kts 310°
2026-05-06 22:27 39.72800 -86.29286 777 ft 0 kts 304°
2026-05-06 22:27 39.72805 -86.29311 776 ft 8 kts 265°
2026-05-06 22:27 39.72734 -86.29415 775 ft 37 kts 225°
2026-05-06 22:28 39.72338 -86.29916 778 ft 120 kts 224°
2026-05-06 22:28 39.71581 -86.30862 1055 ft 170 kts 226°
2026-05-06 22:28 39.70705 -86.31944 2120 ft 184 kts 229°
2026-05-06 22:28 39.69763 -86.33207 3128 ft 208 kts 229°
2026-05-06 22:29 39.68655 -86.34525 4335 ft 227 kts 218°
2026-05-06 22:29 39.67134 -86.35447 5354 ft 258 kts 196°
2026-05-06 22:29 39.65290 -86.35539 6697 ft 269 kts 181°
2026-05-06 22:29 39.63402 -86.35395 8190 ft 273 kts 182°
2026-05-06 22:30 39.61517 -86.35249 9705 ft 275 kts 184°
2026-05-06 22:30 39.59570 -86.35090 10890 ft 287 kts 185°
2026-05-06 22:30 39.57530 -86.34884 11982 ft 301 kts 185°
2026-05-06 22:30 39.55405 -86.34647 13112 ft 311 kts 186°
2026-05-06 22:31 39.53235 -86.34395 14368 ft 315 kts 186°
2026-05-06 22:31 39.51030 -86.34121 15429 ft 321 kts 187°
2026-05-06 22:31 39.48767 -86.33818 16460 ft 330 kts 187°
2026-05-06 22:31 39.46481 -86.33484 17446 ft 339 kts 187°
2026-05-06 22:32 39.44109 -86.33111 18386 ft 347 kts 187°
2026-05-06 22:32 39.41702 -86.32689 19385 ft 347 kts 187°
2026-05-06 22:32 39.39321 -86.32247 20481 ft 345 kts 187°
2026-05-06 22:32 39.36948 -86.31793 21492 ft 344 kts 188°
2026-05-06 22:33 39.34580 -86.31333 22472 ft 342 kts 189°
2026-05-06 22:33 39.32232 -86.31044 23384 ft 337 kts 193°
2026-05-06 22:33 39.29888 -86.30828 24095 ft 340 kts 193°
2026-05-06 22:33 39.27509 -86.30608 24656 ft 345 kts 193°
2026-05-06 22:34 39.25915 -86.30450 25057 ft 348 kts 193°
2026-05-06 22:34 39.19855 -86.29813 26502 ft 358 kts 193°
2026-05-06 22:34 39.17353 -86.29538 27058 ft 362 kts 193°
2026-05-06 22:35 39.14829 -86.29260 27622 ft 366 kts 193°
2026-05-06 22:35 39.12279 -86.28979 28167 ft 370 kts 193°
2026-05-06 22:35 39.09737 -86.28699 28690 ft 373 kts 193°
2026-05-06 22:35 39.07138 -86.28415 29209 ft 377 kts 193°
2026-05-06 22:37 38.93109 -86.26863 31436 ft 391 kts 193°
2026-05-06 22:37 38.90394 -86.26563 31823 ft 393 kts 193°
2026-05-06 22:37 38.87667 -86.26263 32121 ft 397 kts 194°
2026-05-06 22:38 38.84868 -86.25970 32108 ft 408 kts 193°
2026-05-06 22:38 38.82001 -86.25664 32079 ft 419 kts 192°
2026-05-06 22:38 38.79059 -86.25344 32031 ft 431 kts 192°
2026-05-06 22:38 38.76032 -86.25000 32007 ft 441 kts 192°
2026-05-06 22:39 38.70006 -86.24309 31971 ft 429 kts 192°
2026-05-06 22:39 38.64167 -86.23659 31984 ft 421 kts 192°
2026-05-06 22:40 38.58330 -86.23029 31982 ft 420 kts 192°
2026-05-06 22:40 38.52561 -86.22777 31996 ft 408 kts 198°
2026-05-06 22:41 38.44049 -86.23152 31998 ft 409 kts 198°
2026-05-06 22:42 38.38357 -86.23301 31996 ft 409 kts 197°
2026-05-06 22:42 38.32666 -86.23439 31995 ft 409 kts 197°
2026-05-06 22:43 38.26992 -86.23554 31999 ft 409 kts 197°
2026-05-06 22:43 38.21301 -86.23687 31998 ft 409 kts 197°
2026-05-06 22:44 38.15614 -86.23822 31986 ft 407 kts 198°
2026-05-06 22:44 38.09937 -86.23967 31987 ft 412 kts 197°
2026-05-06 22:45 38.04201 -86.24092 32006 ft 412 kts 197°
2026-05-06 22:45 37.98511 -86.24227 31982 ft 412 kts 197°
2026-05-06 22:46 37.92776 -86.24371 31968 ft 412 kts 197°
2026-05-06 22:46 37.87067 -86.24597 32013 ft 405 kts 200°
2026-05-06 22:47 37.81497 -86.25386 31956 ft 401 kts 201°
2026-05-06 22:47 37.75922 -86.26134 31980 ft 404 kts 200°
2026-05-06 22:48 37.70328 -86.26820 31966 ft 403 kts 200°
2026-05-06 22:48 37.64776 -86.27504 31937 ft 403 kts 200°
2026-05-06 22:49 37.59166 -86.28200 31971 ft 405 kts 200°
2026-05-06 22:49 37.53556 -86.28886 31962 ft 405 kts 200°
2026-05-06 22:50 37.47951 -86.29575 31966 ft 405 kts 200°
2026-05-06 22:50 37.42340 -86.30264 31961 ft 405 kts 200°
2026-05-06 22:51 37.37648 -86.30839 31948 ft 409 kts 200°
2026-05-06 22:51 37.31086 -86.31641 31963 ft 408 kts 200°
2026-05-06 22:52 37.26383 -86.32214 31964 ft 407 kts 200°
2026-05-06 22:52 37.20739 -86.32909 31973 ft 407 kts 200°
2026-05-06 22:53 37.15082 -86.33592 31996 ft 411 kts 199°
2026-05-06 22:53 37.09388 -86.34287 31973 ft 410 kts 199°
2026-05-06 22:54 37.03690 -86.34972 31975 ft 410 kts 199°
2026-05-06 22:54 36.98045 -86.35652 31973 ft 410 kts 199°
2026-05-06 22:55 36.92362 -86.36337 31963 ft 411 kts 199°
2026-05-06 22:55 36.86635 -86.37033 31975 ft 414 kts 198°
2026-05-06 22:56 36.80894 -86.37722 31976 ft 413 kts 198°
2026-05-06 22:56 36.75192 -86.38405 31972 ft 413 kts 198°
2026-05-06 22:57 36.69461 -86.39093 31982 ft 414 kts 198°
2026-05-06 22:57 36.63721 -86.39785 31972 ft 413 kts 198°
2026-05-06 22:58 36.57990 -86.40469 31979 ft 414 kts 198°
2026-05-06 22:58 36.52261 -86.41155 32018 ft 414 kts 198°
2026-05-06 22:59 36.46535 -86.41845 32031 ft 413 kts 198°
2026-05-06 22:59 36.40800 -86.42528 32020 ft 415 kts 198°
2026-05-06 23:00 36.35056 -86.43208 32027 ft 414 kts 198°
2026-05-06 23:00 36.29319 -86.43887 32033 ft 414 kts 198°
2026-05-06 23:01 36.23611 -86.44566 32020 ft 414 kts 198°
2026-05-06 23:01 36.17865 -86.45248 32013 ft 416 kts 199°
2026-05-06 23:02 36.12074 -86.45933 32002 ft 417 kts 199°
2026-05-06 23:02 36.06304 -86.46614 32001 ft 417 kts 199°
2026-05-06 23:03 36.00519 -86.47297 32000 ft 417 kts 199°
2026-05-06 23:03 35.94745 -86.47977 32004 ft 417 kts 199°
2026-05-06 23:04 35.89004 -86.48653 31983 ft 417 kts 199°
2026-05-06 23:04 35.83225 -86.49331 31987 ft 417 kts 199°
2026-05-06 23:05 35.77443 -86.50010 31976 ft 417 kts 199°
2026-05-06 23:05 35.71658 -86.50691 31966 ft 417 kts 199°
2026-05-06 23:06 35.65894 -86.51364 31952 ft 419 kts 199°
2026-05-06 23:06 35.60093 -86.52038 31957 ft 418 kts 199°
2026-05-06 23:07 35.54295 -86.52714 31956 ft 418 kts 199°
2026-05-06 23:07 35.48536 -86.53387 31959 ft 418 kts 199°
2026-05-06 23:08 35.42703 -86.54066 32006 ft 420 kts 198°
2026-05-06 23:08 35.36903 -86.54739 31958 ft 421 kts 198°
2026-05-06 23:09 35.31069 -86.55393 31974 ft 421 kts 198°
2026-05-06 23:09 35.25247 -86.56075 31963 ft 420 kts 198°
2026-05-06 23:10 35.19409 -86.56772 31682 ft 423 kts 198°
2026-05-06 23:10 35.16513 -86.57113 31262 ft 411 kts 197°
2026-05-06 23:10 35.13718 -86.57412 30908 ft 395 kts 197°
2026-05-06 23:10 35.11033 -86.57707 30539 ft 381 kts 198°
2026-05-06 23:11 35.08437 -86.58002 30185 ft 368 kts 198°
2026-05-06 23:11 35.05911 -86.58300 29809 ft 363 kts 198°
2026-05-06 23:11 35.03413 -86.58602 29403 ft 370 kts 198°
2026-05-06 23:11 35.00820 -86.58914 28978 ft 377 kts 198°
2026-05-06 23:12 34.98195 -86.59220 28522 ft 381 kts 197°
2026-05-06 23:12 34.95538 -86.59524 28147 ft 383 kts 197°
2026-05-06 23:12 34.92876 -86.59828 27675 ft 385 kts 197°
2026-05-06 23:12 34.90202 -86.60132 27236 ft 384 kts 197°
2026-05-06 23:13 34.87560 -86.60427 27047 ft 378 kts 197°
2026-05-06 23:13 34.84948 -86.60723 27078 ft 382 kts 197°
2026-05-06 23:13 34.82310 -86.61036 26421 ft 385 kts 197°
2026-05-06 23:13 34.79662 -86.61329 25899 ft 379 kts 196°
2026-05-06 23:14 34.77055 -86.61622 25360 ft 374 kts 197°
2026-05-06 23:14 34.74481 -86.61916 24808 ft 370 kts 197°
2026-05-06 23:14 34.71928 -86.62209 24322 ft 367 kts 197°
2026-05-06 23:14 34.69394 -86.62501 23828 ft 365 kts 197°
2026-05-06 23:15 34.66874 -86.62790 23327 ft 362 kts 197°
2026-05-06 23:15 34.64371 -86.63075 22847 ft 359 kts 197°
2026-05-06 23:15 34.61892 -86.63358 22376 ft 357 kts 197°
2026-05-06 23:15 34.59417 -86.63641 21906 ft 356 kts 197°
2026-05-06 23:16 34.56959 -86.63921 21422 ft 354 kts 197°
2026-05-06 23:16 34.54544 -86.64191 20966 ft 352 kts 197°
2026-05-06 23:16 34.52111 -86.64468 20541 ft 349 kts 197°
2026-05-06 23:16 34.49703 -86.64748 20081 ft 347 kts 197°
2026-05-06 23:17 34.47304 -86.65024 19599 ft 345 kts 197°
2026-05-06 23:17 34.44911 -86.65293 19133 ft 344 kts 197°
2026-05-06 23:17 34.42535 -86.65563 18689 ft 342 kts 196°
2026-05-06 23:17 34.40161 -86.65828 18231 ft 344 kts 196°
2026-05-06 23:18 34.37784 -86.66098 17756 ft 340 kts 196°
2026-05-06 23:18 34.35439 -86.66360 17335 ft 336 kts 195°
2026-05-06 23:18 34.33114 -86.66624 16871 ft 336 kts 195°
2026-05-06 23:18 34.30788 -86.66890 16434 ft 334 kts 195°
2026-05-06 23:19 34.28478 -86.67152 15997 ft 333 kts 194°
2026-05-06 23:19 34.26171 -86.67415 15554 ft 331 kts 194°
2026-05-06 23:19 34.23907 -86.67671 15122 ft 329 kts 193°
2026-05-06 23:19 34.21633 -86.67926 14682 ft 326 kts 193°
2026-05-06 23:20 34.19397 -86.68177 14243 ft 319 kts 193°
2026-05-06 23:20 34.17211 -86.68422 13818 ft 312 kts 192°
2026-05-06 23:20 34.15063 -86.68663 13440 ft 306 kts 193°
2026-05-06 23:20 34.12942 -86.68893 12991 ft 305 kts 192°
2026-05-06 23:21 34.10826 -86.68990 12599 ft 309 kts 181°
2026-05-06 23:21 34.08750 -86.68140 12243 ft 323 kts 156°
2026-05-06 23:21 34.07048 -86.66327 11856 ft 329 kts 136°
2026-05-06 23:21 34.05600 -86.64244 11636 ft 320 kts 136°
2026-05-06 23:22 34.04172 -86.62184 11213 ft 321 kts 136°
2026-05-06 23:22 34.02737 -86.60125 10769 ft 320 kts 136°
2026-05-06 23:22 34.01341 -86.58093 10348 ft 316 kts 135°
2026-05-06 23:22 33.99950 -86.56061 9922 ft 314 kts 135°
2026-05-06 23:23 33.98547 -86.54061 9465 ft 311 kts 136°
2026-05-06 23:23 33.97150 -86.52081 9002 ft 309 kts 136°
2026-05-06 23:23 33.95763 -86.50119 8564 ft 306 kts 136°
2026-05-06 23:23 33.94389 -86.48173 8129 ft 304 kts 136°
2026-05-06 23:24 33.93014 -86.46223 7683 ft 302 kts 136°
2026-05-06 23:24 33.91647 -86.44304 7252 ft 301 kts 136°
2026-05-06 23:24 33.90309 -86.42425 6815 ft 295 kts 136°
2026-05-06 23:24 33.88842 -86.40780 6358 ft 275 kts 156°
2026-05-06 23:25 33.87123 -86.40174 5915 ft 252 kts 185°
2026-05-06 23:25 33.85483 -86.40630 5474 ft 236 kts 206°
2026-05-06 23:25 33.83985 -86.41382 5036 ft 231 kts 205°
2026-05-06 23:25 33.82531 -86.42113 4601 ft 228 kts 205°
2026-05-06 23:26 33.81083 -86.42865 4154 ft 224 kts 206°
2026-05-06 23:26 33.79662 -86.43594 3890 ft 213 kts 206°
2026-05-06 23:26 33.78364 -86.44262 3873 ft 196 kts 206°
2026-05-06 23:26 33.77153 -86.44892 3875 ft 184 kts 206°
2026-05-06 23:27 33.75999 -86.45481 4013 ft 181 kts 205°
2026-05-06 23:27 33.74836 -86.46089 4016 ft 182 kts 206°
2026-05-06 23:27 33.73670 -86.46680 4025 ft 183 kts 206°
2026-05-06 23:27 33.72489 -86.47295 3964 ft 188 kts 208°
2026-05-06 23:28 33.71504 -86.48265 3948 ft 180 kts 229°
2026-05-06 23:28 33.70622 -86.49381 3970 ft 184 kts 237°
2026-05-06 23:28 33.70221 -86.50823 3934 ft 183 kts 254°
2026-05-06 23:28 33.69745 -86.52216 3945 ft 181 kts 237°
2026-05-06 23:29 33.69000 -86.53443 3952 ft 182 kts 233°
2026-05-06 23:29 33.68291 -86.54705 3925 ft 181 kts 237°
2026-05-06 23:29 33.67622 -86.55935 3936 ft 169 kts 236°
2026-05-06 23:29 33.66948 -86.57089 3956 ft 170 kts 236°
2026-05-06 23:30 33.66285 -86.58262 3882 ft 171 kts 235°
2026-05-06 23:30 33.65631 -86.59405 3577 ft 160 kts 235°
2026-05-06 23:30 33.65014 -86.60482 3357 ft 157 kts 233°
2026-05-06 23:30 33.64398 -86.61572 3157 ft 155 kts 235°
2026-05-06 23:31 33.63774 -86.62635 2933 ft 155 kts 236°
2026-05-06 23:31 33.63202 -86.63662 2728 ft 140 kts 234°
2026-05-06 23:31 33.62698 -86.64551 2572 ft 124 kts 234°
2026-05-06 23:31 33.62190 -86.65428 2407 ft 130 kts 235°
2026-05-06 23:32 33.61680 -86.66321 2229 ft 128 kts 231°
2026-05-06 23:32 33.61177 -86.67203 2033 ft 131 kts 233°
2026-05-06 23:32 33.60660 -86.68096 1867 ft 130 kts 233°
2026-05-06 23:32 33.60157 -86.69024 1734 ft 132 kts 235°
2026-05-06 23:33 33.59655 -86.69933 1564 ft 133 kts 233°
2026-05-06 23:33 33.59118 -86.70863 1465 ft 138 kts 233°
2026-05-06 23:33 33.58557 -86.71825 1273 ft 143 kts 235°
2026-05-06 23:33 33.58001 -86.72777 1039 ft 137 kts 231°
2026-05-06 23:34 33.57466 -86.73725 787 ft 140 kts 233°
2026-05-06 23:34 33.56918 -86.74664 642 ft 139 kts 232°
2026-05-06 23:34 33.56471 -86.75425 628 ft 76 kts 237°
2026-05-06 23:34 33.56271 -86.75770 628 ft 33 kts 227°
2026-05-06 23:35 33.56133 -86.75868 626 ft 7 kts 178°
2026-05-06 23:35 33.56120 -86.75852 628 ft 4 kts 95°
2026-05-06 23:35 33.56132 -86.75820 621 ft 6 kts 56°
2026-05-06 23:35 33.56155 -86.75782 627 ft 6 kts 55°
2026-05-06 23:36 33.56173 -86.75738 624 ft 6 kts 73°
2026-05-06 23:36 33.56169 -86.75664 623 ft 13 kts 84°
2026-05-06 23:36 33.56225 -86.75544 625 ft 19 kts 55°
2026-05-06 23:36 33.56275 -86.75414 624 ft 15 kts 64°
2026-05-06 23:37 33.56284 -86.75343 624 ft 7 kts 115°
2026-05-06 23:37 33.56257 -86.75315 624 ft 1 kts 147°